Location: Harwich
(41.7160°N, 69.9939°W)
Time: 06:58:23
(UTC+02:00)

MOZHAYETS 4 - Visible Passes

Search period start: 19 September 2024 00:00
Search period end: 29 September 2024 00:00
Orbit: 650 x 668 km, 98.3° (Epoch: 18 September)

Date Brightness Start Highest point End Pass type
(mag) Time Alt. Az. Time Alt. Az. Time Alt. Az.
19 Sep 8.4 09:55:34 27° SE 09:57:49 53° ENE 10:02:14 10° N visible
19 Sep 9.2 11:33:33 13° WSW 11:34:58 15° W 11:37:34 10° WNW visible
20 Sep 10.7 08:49:12 10° E 08:50:50 12° ENE 08:52:29 10° NE visible
20 Sep 7.5 10:25:27 40° S 10:27:03 76° WSW 10:31:36 10° NNW visible
21 Sep 10.0 09:17:21 15° ESE 09:19:48 22° ENE 09:23:16 10° NNE visible
21 Sep 8.1 10:55:21 32° SW 10:56:24 37° W 11:00:37 10° NNW visible
22 Sep 8.8 09:47:15 30° ESE 09:48:52 42° ENE 09:53:07 10° N visible
22 Sep 9.0 11:25:15 18° WSW 11:25:53 19° W 11:29:04 10° NW visible
23 Sep 7.6 10:17:09 57° SSE 10:18:03 85° ENE 10:22:34 10° NNW visible
24 Sep 10.2 09:09:03 15° E 09:10:51 18° ENE 09:13:54 10° NNE visible
24 Sep 7.8 10:47:03 45° WSW 10:47:20 46° W 10:51:42 10° NNW visible
25 Sep 9.2 09:38:57 31° E 09:39:52 34° ENE 09:43:55 10° N visible
25 Sep 8.7 11:16:57 23° W 11:16:57 23° W 11:20:21 10° NW visible
26 Sep 7.9 10:08:51 67° E 10:08:59 68° ENE 10:13:28 10° N visible
26 Sep 9.5 11:46:51 11° W 11:46:51 11° W 11:47:47 10° WNW visible
27 Sep 10.5 09:00:45 14° E 09:01:52 15° ENE 09:04:21 10° NNE visible
27 Sep 7.7 10:38:45 54° WNW 10:38:45 54° WNW 10:42:41 10° NNW visible
28 Sep 9.6 09:30:39 27° ENE 09:30:49 27° ENE 09:34:37 10° N visible
28 Sep 8.7 11:08:38 26° WNW 11:08:38 26° WNW 11:11:30 10° NW visible
